Location: Lake of the Woods (North-East)
(49.6672°N, 94.8656°W)
Time: 21:24:07
(UTC-06:00)

Daily predictions for brighter satellites

Satellite Brightness Start Highest point End
(mag) Time Altitude Azimuth Time Altitude Azimuth Time Altitude Azimuth
Cosmos 2233 Rocket 4.1 18:05:17 10° N 18:11:30 57° ENE 18:17:39 10° SSE
Cosmos 2016 Rocket 4.4 18:06:42 10° NNW 18:13:05 73° W 18:19:21 10° S
SPOT 3 Rocket 3.8 18:08:16 10° SE 18:13:16 51° ENE 18:18:21 10° N
Cosmos 1452 Rocket 4.1 18:09:38 10° N 18:14:30 35° NE 18:19:18 10° ESE
Cosmos 1869 Rocket 3.5 18:11:05 10° S 18:15:24 81° E 18:19:46 10° NNE
USA 267 3.7 18:10:02 10° E 18:16:19 52° NNE 18:22:37 10° WNW
Cosmos 44 Rocket 4.0 18:15:05 10° NNW 18:19:46 39° NE 18:24:31 10° ESE
CENTAUR R/B 4.0 18:16:44 10° SE 18:19:48 14° ESE 18:23:03 10° ENE
Tiangong 2 3.1 18:18:51 10° WSW 18:21:25 22° S 18:23:58 10° SE
Meteor 1-28 Rocket 4.3 18:17:52 10° N 18:21:30 49° WNW 18:25:05 10° SSW
MOS 1-B Rocket 4.0 18:15:26 10° SSE 18:21:46 78° ENE 18:27:28 10° NNW
Cosmos 2237 Rocket 2.2 18:18:51 10° NNW 18:24:31 82° ENE 18:30:09 10° SSE
Cosmos 2219 3.2 18:19:19 10° SSW 18:24:55 78° ESE 18:30:36 10° NNE
SL-16 R/B 2.6 18:21:21 10° NNW 18:26:45 42° NE 18:32:07 10° ESE
Cosmos 2221 Rocket 4.1 18:22:24 10° NNW 18:26:48 67° W 18:31:10 10° S
Cosmos 2227 Rocket 2.8 18:22:54 10° S 18:28:01 37° ESE 18:33:10 10° NE
NOAA 12 4.1 18:22:58 10° SSE 18:28:17 79° ENE 18:33:39 10° NNW
FREGAT/IRIS 3.5 18:28:53 10° SE 18:31:27 27° ENE 18:34:03 10° N
Cosmos 405 4.0 18:28:52 10° SSE 18:31:47 25° E 18:34:43 10° NE
Iridium 4 Rocket 4.2 18:31:28 10° NNE 18:35:53 28° ENE 18:39:57 10° SE
H-2A R/B 2.9 18:32:24 10° SSE 18:36:13 52° ENE 18:40:02 10° N
Cosmos 1420 Rocket 4.4 18:32:11 10° NNW 18:37:12 43° ENE 18:42:14 10° SE
Cosmos 1624 Rocket 4.4 18:32:36 10° NNW 18:37:50 70° WSW 18:43:00 10° SSE
FENGYUN 3A 3.9 18:33:02 10° S 18:38:26 76° WSW 18:43:53 10° NNW
Cosmos 1825 4.5 18:36:46 10° SW 18:40:03 27° WNW 18:43:20 10° NNW
COSMO-SKYMED 1 2.6 18:37:34 10° NNE 18:41:57 90° SE 18:46:18 10° SSW
Cosmos 2297 Rocket 2.6 18:37:02 10° S 18:42:17 41° ESE 18:47:33 10° NE
Cosmos 1680 Rocket 4.1 18:37:22 10° SW 18:42:38 62° WNW 18:47:57 10° NNE
NOSS 3-2 (A) 3.6 18:38:58 10° SSW 18:44:49 59° SE 18:51:22 10° NE
ATLAS 3B R/B 2.8 18:38:04 10° SW 18:45:19 88° SE 18:52:16 10° NE
Cosmos 2285 Rocket 4.0 18:40:55 10° S 18:47:11 70° ESE 18:53:34 10° NNE
Lacrosse 5 3.1 18:42:28 10° WNW 18:47:15 43° SW 18:52:00 10° SSE
CZ-2D R/B 4.1 18:45:42 10° SE 18:49:08 30° ENE 18:52:34 10° N
Cosmos 1812 2.7 18:47:09 10° N 18:51:01 57° ENE 18:54:50 10° SSE
YAOGAN 6 4.4 18:51:46 15° ENE 18:51:46 15° ENE 18:53:49 10° NNE
ALOS 3.4 18:50:29 10° S 18:55:01 49° W 18:59:34 10° NNW
Cosmos 2333 Rocket 3.8 18:52:28 10° NW 18:57:39 38° WSW 19:02:47 10° S
Cosmos 44 3.3 18:54:48 10° NW 18:59:46 81° NE 19:04:59 10° SE
USA 238 DEB 3.9 18:53:19 10° SW 19:00:14 78° NW 19:07:17 10° NE
USA 238 3.9 18:53:25 10° SW 19:00:20 79° NW 19:07:23 10° NE
Cosmos 2034 Rocket 4.3 18:54:17 10° N 19:00:24 45° ENE 19:06:29 10° SE
Thor Agena Rocket 4.2 18:57:31 10° NNE 19:02:02 31° E 19:06:29 10° SSE
ERS-2 2.0 18:59:42 10° SSE 19:03:23 83° ENE 19:07:06 10° NNW
Meteor 1-25 Rocket 4.4 18:58:59 10° SSE 19:04:11 44° E 19:09:28 10° NNE
Cosmos 2082 3.7 19:03:19 10° S 19:08:48 57° ESE 19:14:21 10° NE
Cosmos 1674 Rocket 3.5 19:05:09 10° N 19:09:33 87° W 19:13:53 10° S
Cosmos 1939 Rocket 3.9 19:08:54 24° E 19:09:52 26° ENE 19:13:19 10° N
CZ-4C R/B 3.6 19:06:47 10° NW 19:12:44 34° NNE 19:16:56 20° ENE
ATLAS CENTAUR R/B 3.1 19:10:24 10° NNW 19:13:03 17° NNE 19:13:58 16° NE
Cosmos 1633 2.7 19:11:15 10° SSE 19:14:40 46° E 19:18:06 10° NNE
USA 32 4.3 19:09:57 10° SSE 19:14:49 42° E 19:19:44 10° NNE
Envisat 3.1 19:11:06 10° SE 19:16:03 55° ENE 19:21:01 10° N
EO 1 Del DPAF 3.4 19:12:31 10° N 19:16:22 76° WNW 19:20:11 10° SSW
Cosmos 1908 Rocket 3.7 19:16:06 10° S 19:20:26 51° E 19:24:47 10° NNE
ARGOS Delta rocket 4.2 19:17:53 10° NNE 19:22:39 42° E 19:27:07 10° SSE
USA 215 3.6 19:18:49 20° ENE 19:23:09 46° SE 19:29:24 10° SSW
SeaSat 1 2.5 19:19:43 10° SSE 19:24:40 84° WSW 19:29:38 10° NNW
HJ-1C 3.4 19:21:34 10° SSE 19:25:00 83° W 19:28:26 10° NNW
Resurs 1-3 3.9 19:26:37 29° ESE 19:28:24 44° ENE 19:32:35 10° N
Cosmos 1733 Rocket 3.6 19:24:48 10° SSW 19:29:04 59° WNW 19:33:21 10° N
Cosmos 921 Rocket 3.0 19:26:38 10° NNW 19:31:09 64° ENE 19:33:43 25° SE
Aureole 3 4.0 19:25:30 10° S 19:31:29 85° W 19:36:09 10° N
H-2A R/B 3.9 19:33:57 16° NE 19:33:57 16° NE 19:36:20 10° NNE
Okean 3 4.0 19:29:38 10° NNW 19:33:46 59° W 19:37:52 10° S
Resurs 01 Rocket 1.7 19:33:23 32° SE 19:35:06 51° ENE 19:39:25 10° N
NOSS 3-2 (C) 3.4 19:30:42 10° SW 19:36:45 87° SE 19:42:54 13° NE
Cosmos 1975 Rocket 3.0 19:38:42 10° N 19:43:07 66° ENE 19:45:12 30° SSE
ARGOS 4.4 19:44:09 23° NE 19:44:09 23° NE 19:47:42 10° N
USA 186 2.1 19:44:54 55° NNE 19:44:54 55° NNE 19:47:39 10° N
SJ-6B 3.4 19:43:30 10° S 19:47:12 54° W 19:51:00 10° NNW
NOAA 11 4.4 19:52:42 43° E 19:53:15 44° ENE 19:58:24 10° N
Cosmos 2084 Rocket 4.0 19:50:02 10° WSW 19:54:16 54° NW 19:55:58 31° NNE
Cosmos 1943 3.6 19:49:28 10° NNW 19:54:50 41° NE 19:55:24 40° ENE
Okean 1 3.7 19:52:39 10° NNW 19:56:39 64° W 19:59:44 16° S
Tsikada Rocket 4.0 19:50:38 10° S 19:56:57 64° E 20:03:18 10° NNE
Tiangong 2 3.9 19:56:19 10° SW 19:57:31 12° SSW 19:57:38 12° SSW
DNEPR-1 R/B 4.0 19:54:21 10° SW 19:58:29 59° NW 20:00:32 29° NNE
USA 267 3.2 19:56:05 36° ESE 19:59:05 89° NE 20:05:40 10° WNW
Cosmos 1331 Rocket 4.1 19:54:18 10° NNW 19:59:32 56° ENE 20:00:05 53° E
Meteor 1-13 Rocket 4.1 19:54:05 10° N 19:59:39 68° ENE 20:01:35 40° SE
Cosmos 44 Rocket 4.3 19:56:38 10° NW 20:01:26 46° WSW 20:04:47 19° S
Geosat 3.9 20:05:21 60° ESE 20:05:28 60° ESE 20:10:26 10° SSW
Spot 2 Rocket 3.3 20:04:39 45° SSE 20:06:15 81° ENE 20:11:22 10° NNW
SJ-11-01 4.1 20:07:44 68° SE 20:08:15 77° ENE 20:13:01 10° NNW
BREEZE-M DEB (TANK) 3.7 20:06:28 10° W 20:07:52 23° SW 20:07:52 23° SW
CENTAUR R/B 2.5 20:02:53 10° SSW 20:08:58 69° SE 20:11:51 36° NE
Cosmos 1048 Rocket 3.9 20:03:50 10° SSW 20:09:09 77° ESE 20:11:45 31° NNE
Sich 1 Rocket 3.9 20:05:43 10° SSW 20:10:12 68° W 20:14:42 10° N
SL-16 R/B 3.5 20:05:37 10° NW 20:10:51 39° WSW 20:16:04 10° S
Cosmos 2227 Rocket 3.2 20:06:35 10° SW 20:12:00 45° NW 20:17:26 10° NNE
Cosmos 1782 Rocket 3.7 20:13:25 10° SSW 20:17:52 73° W 20:22:18 10° N
Cosmos 158 Rocket 4.3 20:17:24 10° SW 20:22:14 59° WNW 20:26:06 16° NNE
YAOGAN 6 4.1 20:26:12 33° NW 20:26:12 33° NW 20:28:27 10° NNW
Cosmos 2297 Rocket 3.4 20:21:01 10° WSW 20:26:21 41° NW 20:31:43 10° NNE
Cosmos 1603 3.7 20:23:35 10° NNW 20:29:16 76° WSW 20:30:10 62° S
ATLAS 3B R/B 4.0 20:30:21 10° W 20:36:48 35° NNW 20:41:17 18° NNE
Cosmos 1939 Rocket 4.4 20:44:48 36° W 20:44:48 36° W 20:48:31 10° NNW
Cosmos 2279 Rocket 4.3 20:39:43 10° N 20:44:39 54° NNE 20:44:39 54° NNE
ATLAS CENTAUR R/B 3.5 20:48:40 10° NW 20:50:13 23° NNW 20:50:13 23° NNW
Meteor 2-4 Rocket 4.3 20:50:13 10° NNW 20:55:57 56° W 20:56:51 50° SW
Cosmos 1634 Rocket 4.3 20:55:14 10° NNW 21:01:19 63° W 21:02:02 58° SW
CZ-4C R/B 2.7 20:55:16 10° NW 21:02:08 82° NNE 21:02:08 82° NNE
USA 215 3.3 21:06:09 73° N 21:06:26 74° NNW 21:12:57 10° WSW
H-2A R/B 3.6 21:14:35 29° N 21:14:35 29° N 21:17:11 10° NNW
Resurs 01 Rocket 3.9 21:10:56 19° WSW 21:11:53 20° W 21:15:12 10° NW
USA 267 4.4 21:43:26 33° WSW 21:43:26 33° WSW 21:48:28 10° WNW
CENTAUR R/B 3.8 21:54:02 10° W 21:59:08 39° NW 21:59:08 39° NW
ATLAS 3B R/B 4.5 22:23:57 10° NW 22:28:33 24° NNW 22:28:33 24° NNW
